Time,TemperatureF,DewpointF,PressureIn,WindDirection,WindDirectionDegrees,WindSpeedMPH,WindSpeedGustMPH,Humidity,HourlyPrecipIn,Conditions,Clouds,dailyrainin,SoftwareType,DateUTC
2013-01-06 00:00:00,41.0,37.5,30.19,North,0,0.0,0.0,87,0.00,,,0.03,WUHU216HW,2013-01-06 05:00:00,
2013-01-06 00:02:00,41.2,37.6,30.19,North,0,0.0,0.0,87,0.00,,,0.00,WUHU216HW,2013-01-06 05:02:00,
2013-01-06 00:06:00,41.0,37.5,30.18,North,0,0.0,0.0,87,0.00,,,0.00,WUHU216HW,2013-01-06 05:06:00,
2013-01-06 00:11:00,41.0,37.5,30.18,North,0,0.0,0.0,87,0.00,,,0.00,WUHU216HW,2013-01-06 05:11:00,
2013-01-06 00:16:00,41.0,37.7,30.18,North,0,0.0,0.0,88,0.00,,,0.00,WUHU216HW,2013-01-06 05:16:00,
2013-01-06 00:21:00,40.9,37.5,30.17,North,0,0.0,0.0,88,0.00,,,0.00,WUHU216HW,2013-01-06 05:21:00,
2013-01-06 00:26:00,41.0,37.5,30.17,North,0,0.0,0.0,87,0.00,,,0.00,WUHU216HW,2013-01-06 05:26:00,
2013-01-06 00:31:00,40.7,36.8,30.17,North,0,0.0,0.0,86,0.00,,,0.00,WUHU216HW,2013-01-06 05:31:00,
2013-01-06 00:36:00,40.3,36.7,30.17,North,0,0.0,0.0,87,0.00,,,0.00,WUHU216HW,2013-01-06 05:36:00,
2013-01-06 00:41:00,40.0,36.4,30.17,North,0,0.0,0.0,87,0.00,,,0.00,WUHU216HW,2013-01-06 05:41:00,
2013-01-06 00:46:00,40.0,36.4,30.17,North,0,0.0,0.0,87,0.00,,,0.00,WUHU216HW,2013-01-06 05:46:00,
2013-01-06 00:51:00,40.3,36.7,30.17,North,0,0.0,0.0,87,0.00,,,0.00,WUHU216HW,2013-01-06 05:51:00,
2013-01-06 00:56:00,40.5,37.5,30.17,North,0,0.0,0.0,89,0.00,,,0.00,WUHU216HW,2013-01-06 05:56:00,
2013-01-06 01:01:00,40.7,37.4,30.17,North,0,0.0,0.0,88,0.00,,,0.00,WUHU216HW,2013-01-06 06:01:00,
2013-01-06 01:06:00,40.9,37.3,30.17,North,0,0.0,0.0,87,0.00,,,0.00,WUHU216HW,2013-01-06 06:06:00,
2013-01-06 01:11:00,40.9,37.3,30.17,North,0,0.0,0.0,87,0.00,,,0.00,WUHU216HW,2013-01-06 06:11:00,
2013-01-06 01:16:00,41.0,37.5,30.17,North,0,0.0,0.0,87,0.00,,,0.00,WUHU216HW,2013-01-06 06:16:00,
2013-01-06 01:21:00,41.0,37.5,30.16,North,0,0.0,0.0,87,0.00,,,0.00,WUHU216HW,2013-01-06 06:21:00,
2013-01-06 01:26:00,41.0,37.5,30.16,North,0,0.0,0.0,87,0.00,,,0.00,WUHU216HW,2013-01-06 06:26:00,
2013-01-06 01:31:00,41.0,37.5,30.16,North,0,0.0,0.0,87,0.00,,,0.00,WUHU216HW,2013-01-06 06:31:00,
2013-01-06 01:36:00,40.9,36.9,30.15,North,0,0.0,0.0,86,0.00,,,0.00,WUHU216HW,2013-01-06 06:36:00,
2013-01-06 01:41:00,40.7,36.8,30.15,North,0,0.0,0.0,86,0.00,,,0.00,WUHU216HW,2013-01-06 06:41:00,
2013-01-06 01:46:00,40.5,36.6,30.15,North,0,0.0,0.0,86,0.00,,,0.00,WUHU216HW,2013-01-06 06:46:00,
2013-01-06 01:51:00,40.5,36.6,30.15,North,0,0.0,0.0,86,0.00,,,0.00,WUHU216HW,2013-01-06 06:51:00,
2013-01-06 01:56:00,40.5,36.6,30.15,North,0,0.0,0.0,86,0.00,,,0.00,WUHU216HW,2013-01-06 06:56:00,
2013-01-06 02:01:00,40.5,36.6,30.15,North,0,0.0,0.0,86,0.00,,,0.00,WUHU216HW,2013-01-06 07:01:00,
2013-01-06 02:06:00,40.3,36.5,30.15,North,0,0.0,0.0,86,0.00,,,0.00,WUHU216HW,2013-01-06 07:06:00,
2013-01-06 02:11:00,40.3,36.7,30.15,North,0,0.0,0.0,87,0.00,,,0.00,WUHU216HW,2013-01-06 07:11:00,
2013-01-06 02:16:00,40.3,36.7,30.15,North,0,0.0,0.0,87,0.00,,,0.00,WUHU216HW,2013-01-06 07:16:00,
2013-01-06 02:21:00,40.3,36.7,30.15,North,0,0.0,0.0,87,0.00,,,0.00,WUHU216HW,2013-01-06 07:21:00,
2013-01-06 02:26:00,40.0,36.4,30.15,North,0,0.0,0.0,87,0.00,,,0.00,WUHU216HW,2013-01-06 07:26:00,
2013-01-06 02:31:00,40.3,37.4,30.14,North,0,0.0,0.0,89,0.00,,,0.00,WUHU216HW,2013-01-06 07:31:00,
2013-01-06 02:36:00,40.3,37.0,30.14,North,0,0.0,0.0,88,0.00,,,0.00,WUHU216HW,2013-01-06 07:36:00,
2013-01-06 02:41:00,40.3,37.0,30.14,North,0,0.0,0.0,88,0.00,,,0.00,WUHU216HW,2013-01-06 07:41:00,
2013-01-06 02:46:00,40.3,37.0,30.13,North,0,0.0,0.0,88,0.00,,,0.00,WUHU216HW,2013-01-06 07:46:00,
2013-01-06 02:51:00,40.1,36.5,30.14,North,0,0.0,0.0,87,0.00,,,0.00,WUHU216HW,2013-01-06 07:51:00,
2013-01-06 02:56:00,40.1,36.5,30.13,North,0,0.0,0.0,87,0.00,,,0.00,WUHU216HW,2013-01-06 07:56:00,
2013-01-06 03:01:00,40.1,36.5,30.13,North,0,0.0,0.0,87,0.00,,,0.00,WUHU216HW,2013-01-06 08:01:00,
2013-01-06 03:06:00,40.1,36.5,30.13,North,0,0.0,0.0,87,0.00,,,0.00,WUHU216HW,2013-01-06 08:06:00,
2013-01-06 03:11:00,40.0,36.4,30.13,North,0,0.0,0.0,87,0.00,,,0.00,WUHU216HW,2013-01-06 08:11:00,
2013-01-06 03:16:00,40.1,36.5,30.12,North,0,0.0,0.0,87,0.00,,,0.00,WUHU216HW,2013-01-06 08:16:00,
2013-01-06 03:21:00,40.3,37.0,30.13,North,0,0.0,0.0,88,0.00,,,0.00,WUHU216HW,2013-01-06 08:21:00,
2013-01-06 03:26:00,40.0,36.6,30.13,North,0,0.0,0.0,88,0.00,,,0.00,WUHU216HW,2013-01-06 08:26:00,
2013-01-06 03:31:00,40.0,36.6,30.13,North,0,0.0,0.0,88,0.00,,,0.00,WUHU216HW,2013-01-06 08:31:00,
2013-01-06 03:36:00,40.0,36.6,30.13,North,0,0.0,0.0,88,0.00,,,0.00,WUHU216HW,2013-01-06 08:36:00,
2013-01-06 03:41:00,40.0,36.6,30.12,North,0,0.0,0.0,88,0.00,,,0.00,WUHU216HW,2013-01-06 08:41:00,
2013-01-06 03:46:00,40.0,36.6,30.12,North,0,0.0,0.0,88,0.00,,,0.00,WUHU216HW,2013-01-06 08:46:00,
2013-01-06 03:51:00,40.0,36.6,30.12,North,0,0.0,0.0,88,0.00,,,0.00,WUHU216HW,2013-01-06 08:51:00,
2013-01-06 03:56:00,40.0,36.6,30.12,North,0,0.0,0.0,88,0.00,,,0.00,WUHU216HW,2013-01-06 08:56:00,
2013-01-06 04:01:00,40.1,36.8,30.11,North,0,0.0,0.0,88,0.00,,,0.00,WUHU216HW,2013-01-06 09:01:00,
2013-01-06 04:06:00,40.1,36.8,30.11,North,0,0.0,0.0,88,0.00,,,0.00,WUHU216HW,2013-01-06 09:06:00,
2013-01-06 04:11:00,40.1,37.2,30.11,North,0,0.0,0.0,89,0.00,,,0.00,WUHU216HW,2013-01-06 09:11:00,
2013-01-06 04:16:00,40.1,37.2,30.11,North,0,0.0,0.0,89,0.00,,,0.00,WUHU216HW,2013-01-06 09:16:00,
2013-01-06 04:21:00,40.1,36.8,30.11,North,0,0.0,0.0,88,0.00,,,0.00,WUHU216HW,2013-01-06 09:21:00,
2013-01-06 04:26:00,40.1,36.8,30.11,North,0,0.0,0.0,88,0.00,,,0.00,WUHU216HW,2013-01-06 09:26:00,
2013-01-06 04:31:00,40.1,36.8,30.12,North,0,0.0,0.0,88,0.00,,,0.00,WUHU216HW,2013-01-06 09:31:00,
2013-01-06 04:36:00,40.1,36.8,30.11,North,0,0.0,0.0,88,0.00,,,0.00,WUHU216HW,2013-01-06 09:36:00,
2013-01-06 04:41:00,40.1,37.2,30.10,North,0,0.0,0.0,89,0.00,,,0.00,WUHU216HW,2013-01-06 09:41:00,
2013-01-06 04:46:00,40.1,37.2,30.10,North,0,0.0,0.0,89,0.00,,,0.00,WUHU216HW,2013-01-06 09:46:00,
2013-01-06 04:51:00,40.1,37.2,30.10,North,0,0.0,0.0,89,0.00,,,0.00,WUHU216HW,2013-01-06 09:51:00,
2013-01-06 04:56:00,40.0,36.6,30.10,North,0,0.0,0.0,88,0.00,,,0.00,WUHU216HW,2013-01-06 09:56:00,
2013-01-06 05:01:00,40.0,36.6,30.10,North,0,0.0,0.0,88,0.00,,,0.00,WUHU216HW,2013-01-06 10:01:00,
2013-01-06 05:06:00,39.8,36.5,30.10,North,0,0.0,0.0,88,0.00,,,0.00,WUHU216HW,2013-01-06 10:06:00,
2013-01-06 05:11:00,40.0,37.0,30.10,North,0,0.0,0.0,89,0.00,,,0.00,WUHU216HW,2013-01-06 10:11:00,
2013-01-06 05:16:00,40.0,36.6,30.10,North,0,0.0,0.0,88,0.00,,,0.00,WUHU216HW,2013-01-06 10:16:00,
2013-01-06 05:21:00,40.0,36.6,30.10,North,0,0.0,0.0,88,0.00,,,0.00,WUHU216HW,2013-01-06 10:21:00,
2013-01-06 05:26:00,40.0,36.6,30.10,North,0,0.0,0.0,88,0.00,,,0.00,WUHU216HW,2013-01-06 10:26:00,
2013-01-06 05:31:00,40.0,36.6,30.10,North,0,0.0,0.0,88,0.00,,,0.00,WUHU216HW,2013-01-06 10:31:00,
2013-01-06 05:36:00,39.8,36.5,30.10,North,0,0.0,0.0,88,0.00,,,0.00,WUHU216HW,2013-01-06 10:36:00,
2013-01-06 05:41:00,39.6,36.4,30.10,North,0,0.0,0.0,88,0.00,,,0.00,WUHU216HW,2013-01-06 10:41:00,
2013-01-06 05:46:00,39.4,36.2,30.10,North,0,0.0,0.0,88,0.00,,,0.00,WUHU216HW,2013-01-06 10:46:00,
2013-01-06 05:51:00,39.4,36.2,30.10,North,0,0.0,0.0,88,0.00,,,0.00,WUHU216HW,2013-01-06 10:51:00,
2013-01-06 05:56:00,39.4,36.2,30.10,North,0,0.0,0.0,88,0.00,,,0.00,WUHU216HW,2013-01-06 10:56:00,
2013-01-06 06:01:00,39.4,36.2,30.10,North,0,0.0,0.0,88,0.00,,,0.00,WUHU216HW,2013-01-06 11:01:00,
2013-01-06 06:06:00,39.4,36.2,30.10,North,0,0.0,0.0,88,0.00,,,0.00,WUHU216HW,2013-01-06 11:06:00,
2013-01-06 06:11:00,39.4,36.2,30.10,North,0,0.0,0.0,88,0.00,,,0.00,WUHU216HW,2013-01-06 11:11:00,
2013-01-06 06:16:00,39.4,36.2,30.10,North,0,0.0,0.0,88,0.00,,,0.00,WUHU216HW,2013-01-06 11:16:00,
2013-01-06 06:21:00,39.4,36.2,30.10,North,0,0.0,0.0,88,0.00,,,0.00,WUHU216HW,2013-01-06 11:21:00,
2013-01-06 06:26:00,39.2,36.0,30.10,North,0,0.0,0.0,88,0.00,,,0.00,WUHU216HW,2013-01-06 11:26:00,
2013-01-06 06:31:00,39.2,36.0,30.10,North,0,0.0,0.0,88,0.00,,,0.00,WUHU216HW,2013-01-06 11:31:00,
2013-01-06 06:36:00,39.1,35.8,30.10,North,0,0.0,0.0,88,0.00,,,0.00,WUHU216HW,2013-01-06 11:36:00,
2013-01-06 06:41:00,38.9,35.7,30.10,North,0,0.0,0.0,88,0.00,,,0.00,WUHU216HW,2013-01-06 11:41:00,
2013-01-06 06:46:00,38.9,35.7,30.10,North,0,0.0,0.0,88,0.00,,,0.00,WUHU216HW,2013-01-06 11:46:00,
2013-01-06 06:51:00,39.1,36.1,30.10,North,0,0.0,0.0,89,0.00,,,0.00,WUHU216HW,2013-01-06 11:51:00,
2013-01-06 06:56:00,39.1,36.1,30.11,North,0,0.0,0.0,89,0.00,,,0.00,WUHU216HW,2013-01-06 11:56:00,
2013-01-06 07:01:00,39.2,36.3,30.11,North,0,0.0,0.0,89,0.00,,,0.00,WUHU216HW,2013-01-06 12:01:00,
2013-01-06 07:06:00,39.1,35.8,30.11,North,0,0.0,0.0,88,0.00,,,0.00,WUHU216HW,2013-01-06 12:06:00,
2013-01-06 07:11:00,39.2,36.3,30.11,North,0,0.0,0.0,89,0.00,,,0.00,WUHU216HW,2013-01-06 12:11:00,
2013-01-06 07:16:00,39.2,36.3,30.11,North,0,0.0,0.0,89,0.00,,,0.00,WUHU216HW,2013-01-06 12:16:00,
2013-01-06 07:21:00,39.2,36.3,30.11,North,0,0.0,0.0,89,0.00,,,0.00,WUHU216HW,2013-01-06 12:21:00,
2013-01-06 07:26:00,39.2,36.3,30.12,North,0,0.0,0.0,89,0.00,,,0.00,WUHU216HW,2013-01-06 12:26:00,
2013-01-06 07:31:00,39.2,36.3,30.12,North,0,0.0,0.0,89,0.00,,,0.00,WUHU216HW,2013-01-06 12:31:00,
2013-01-06 07:36:00,39.1,35.8,30.12,North,0,0.0,0.0,88,0.00,,,0.00,WUHU216HW,2013-01-06 12:36:00,
2013-01-06 07:41:00,39.1,36.1,30.12,North,0,0.0,0.0,89,0.00,,,0.00,WUHU216HW,2013-01-06 12:41:00,
2013-01-06 07:46:00,38.9,35.9,30.12,North,0,0.0,0.0,89,0.00,,,0.00,WUHU216HW,2013-01-06 12:46:00,
2013-01-06 07:51:00,38.9,35.9,30.13,North,0,0.0,0.0,89,0.00,,,0.00,WUHU216HW,2013-01-06 12:51:00,
2013-01-06 07:56:00,38.9,35.9,30.13,North,0,0.0,0.0,89,0.00,,,0.00,WUHU216HW,2013-01-06 12:56:00,
2013-01-06 08:01:00,38.9,35.9,30.13,North,0,0.0,0.0,89,0.00,,,0.00,WUHU216HW,2013-01-06 13:01:00,
2013-01-06 08:06:00,38.9,36.2,30.13,North,0,0.0,0.0,90,0.00,,,0.00,WUHU216HW,2013-01-06 13:06:00,
2013-01-06 08:11:00,38.9,36.2,30.12,North,0,0.0,0.0,90,0.00,,,0.00,WUHU216HW,2013-01-06 13:11:00,
2013-01-06 08:16:00,38.9,36.2,30.12,North,0,0.0,0.0,90,0.00,,,0.00,WUHU216HW,2013-01-06 13:16:00,
2013-01-06 08:21:00,39.1,36.4,30.12,North,0,0.0,0.0,90,0.00,,,0.00,WUHU216HW,2013-01-06 13:21:00,
2013-01-06 08:26:00,39.2,36.5,30.12,North,0,0.0,0.0,90,0.00,,,0.00,WUHU216HW,2013-01-06 13:26:00,
2013-01-06 08:31:00,39.2,36.5,30.12,North,0,0.0,0.0,90,0.00,,,0.00,WUHU216HW,2013-01-06 13:31:00,
2013-01-06 08:36:00,39.2,36.5,30.12,North,0,0.0,0.0,90,0.00,,,0.00,WUHU216HW,2013-01-06 13:36:00,
2013-01-06 08:41:00,39.2,36.5,30.13,North,0,0.0,0.0,90,0.00,,,0.00,WUHU216HW,2013-01-06 13:41:00,
2013-01-06 08:46:00,39.2,36.5,30.12,North,0,0.0,0.0,90,0.00,,,0.00,WUHU216HW,2013-01-06 13:46:00,
2013-01-06 08:51:00,39.2,36.5,30.12,North,0,0.0,0.0,90,0.00,,,0.00,WUHU216HW,2013-01-06 13:51:00,
2013-01-06 08:56:00,39.2,36.5,30.12,North,0,0.0,0.0,90,0.00,,,0.00,WUHU216HW,2013-01-06 13:56:00,
2013-01-06 09:01:00,39.2,36.8,30.12,North,0,0.0,0.0,91,0.00,,,0.00,WUHU216HW,2013-01-06 14:01:00,
2013-01-06 09:06:00,39.4,37.0,30.13,North,0,0.0,0.0,91,0.00,,,0.00,WUHU216HW,2013-01-06 14:06:00,
2013-01-06 09:11:00,39.4,37.0,30.13,North,0,0.0,0.0,91,0.00,,,0.00,WUHU216HW,2013-01-06 14:11:00,
2013-01-06 09:16:00,39.6,37.2,30.13,North,0,0.0,0.0,91,0.00,,,0.00,WUHU216HW,2013-01-06 14:16:00,
2013-01-06 09:21:00,39.8,37.4,30.13,North,0,0.0,0.0,91,0.00,,,0.00,WUHU216HW,2013-01-06 14:21:00,
2013-01-06 09:26:00,39.8,37.1,30.13,North,0,0.0,0.0,90,0.00,,,0.00,WUHU216HW,2013-01-06 14:26:00,
2013-01-06 09:31:00,40.0,37.3,30.13,North,0,0.0,0.0,90,0.00,,,0.00,WUHU216HW,2013-01-06 14:31:00,
2013-01-06 09:36:00,39.8,37.1,30.14,North,0,0.0,0.0,90,0.00,,,0.00,WUHU216HW,2013-01-06 14:36:00,
2013-01-06 09:41:00,40.0,37.3,30.14,North,0,0.0,0.0,90,0.00,,,0.00,WUHU216HW,2013-01-06 14:41:00,
2013-01-06 09:46:00,40.0,37.3,30.14,North,0,0.0,0.0,90,0.00,,,0.00,WUHU216HW,2013-01-06 14:46:00,
2013-01-06 09:51:00,40.0,37.3,30.14,North,0,0.0,0.0,90,0.00,,,0.00,WUHU216HW,2013-01-06 14:51:00,
2013-01-06 09:56:00,40.0,37.3,30.14,North,0,0.0,0.0,90,0.00,,,0.00,WUHU216HW,2013-01-06 14:56:00,
2013-01-06 10:01:00,40.0,37.3,30.14,North,0,0.0,0.0,90,0.00,,,0.00,WUHU216HW,2013-01-06 15:01:00,
2013-01-06 10:06:00,40.3,37.6,30.14,North,0,0.0,0.0,90,0.00,,,0.00,WUHU216HW,2013-01-06 15:06:00,
2013-01-06 10:11:00,40.3,37.6,30.14,North,0,0.0,0.0,90,0.00,,,0.00,WUHU216HW,2013-01-06 15:11:00,
2013-01-06 10:16:00,40.5,37.8,30.14,North,0,0.0,0.0,90,0.00,,,0.00,WUHU216HW,2013-01-06 15:16:00,
2013-01-06 10:21:00,40.7,38.0,30.14,North,0,0.0,0.0,90,0.00,,,0.00,WUHU216HW,2013-01-06 15:21:00,
2013-01-06 10:26:00,40.7,37.7,30.14,North,0,0.0,0.0,89,0.00,,,0.00,WUHU216HW,2013-01-06 15:26:00,
2013-01-06 10:31:00,40.9,37.9,30.14,North,0,0.0,0.0,89,0.00,,,0.00,WUHU216HW,2013-01-06 15:31:00,
2013-01-06 10:36:00,40.9,37.9,30.14,North,0,0.0,0.0,89,0.00,,,0.00,WUHU216HW,2013-01-06 15:36:00,
2013-01-06 10:41:00,41.2,38.3,30.14,North,0,0.0,0.0,89,0.00,,,0.00,WUHU216HW,2013-01-06 15:41:00,
2013-01-06 10:46:00,41.4,38.1,30.14,North,0,0.0,0.0,88,0.00,,,0.00,WUHU216HW,2013-01-06 15:46:00,
2013-01-06 10:51:00,41.4,38.1,30.14,North,0,0.0,0.0,88,0.00,,,0.00,WUHU216HW,2013-01-06 15:51:00,
2013-01-06 10:56:00,41.4,38.1,30.14,North,0,0.0,0.0,88,0.00,,,0.00,WUHU216HW,2013-01-06 15:56:00,
2013-01-06 11:01:00,41.6,38.3,30.14,North,0,0.0,0.0,88,0.00,,,0.00,WUHU216HW,2013-01-06 16:01:00,
2013-01-06 11:06:00,41.8,38.4,30.14,North,0,0.0,0.0,88,0.00,,,0.00,WUHU216HW,2013-01-06 16:06:00,
2013-01-06 11:11:00,41.9,38.6,30.13,North,0,0.0,0.0,88,0.00,,,0.00,WUHU216HW,2013-01-06 16:11:00,
2013-01-06 11:16:00,41.8,38.2,30.13,North,0,0.0,0.0,87,0.00,,,0.00,WUHU216HW,2013-01-06 16:16:00,
2013-01-06 11:21:00,41.9,38.4,30.13,North,0,0.0,0.0,87,0.00,,,0.00,WUHU216HW,2013-01-06 16:21:00,
2013-01-06 11:26:00,41.9,38.4,30.13,North,0,0.0,0.0,87,0.00,,,0.00,WUHU216HW,2013-01-06 16:26:00,
2013-01-06 11:31:00,42.1,38.5,30.13,North,0,0.0,0.0,87,0.00,,,0.00,WUHU216HW,2013-01-06 16:31:00,
2013-01-06 11:36:00,42.1,38.5,30.13,North,0,0.0,0.0,87,0.00,,,0.00,WUHU216HW,2013-01-06 16:36:00,
2013-01-06 11:41:00,42.5,38.9,30.13,North,0,0.0,0.0,87,0.00,,,0.00,WUHU216HW,2013-01-06 16:41:00,
2013-01-06 11:46:00,42.8,39.3,30.12,North,0,0.0,0.0,87,0.00,,,0.00,WUHU216HW,2013-01-06 16:46:00,
2013-01-06 11:51:00,43.0,39.1,30.12,North,0,0.0,0.0,86,0.00,,,0.00,WUHU216HW,2013-01-06 16:51:00,
2013-01-06 11:56:00,43.2,39.2,30.12,North,0,0.0,0.0,86,0.00,,,0.00,WUHU216HW,2013-01-06 16:56:00,
2013-01-06 12:01:00,43.2,39.0,30.12,North,0,0.0,0.0,85,0.00,,,0.00,WUHU216HW,2013-01-06 17:01:00,
2013-01-06 12:06:00,43.2,39.0,30.12,North,0,0.0,0.0,85,0.00,,,0.00,WUHU216HW,2013-01-06 17:06:00,
2013-01-06 12:11:00,43.6,39.3,30.12,North,0,0.0,0.0,85,0.00,,,0.00,WUHU216HW,2013-01-06 17:11:00,
2013-01-06 12:16:00,43.7,39.5,30.12,North,0,0.0,0.0,85,0.00,,,0.00,WUHU216HW,2013-01-06 17:16:00,
2013-01-06 12:21:00,44.1,39.9,30.11,North,0,0.0,0.0,85,0.00,,,0.00,WUHU216HW,2013-01-06 17:21:00,
2013-01-06 12:26:00,43.9,39.4,30.10,North,0,0.0,0.0,84,0.00,,,0.00,WUHU216HW,2013-01-06 17:26:00,
2013-01-06 12:31:00,43.7,38.9,30.10,North,0,0.0,0.0,83,0.00,,,0.00,WUHU216HW,2013-01-06 17:31:00,
2013-01-06 12:36:00,43.4,38.5,30.10,North,0,0.0,0.0,83,0.00,,,0.00,WUHU216HW,2013-01-06 17:36:00,
2013-01-06 12:41:00,43.2,38.3,30.09,North,0,0.0,0.0,83,0.00,,,0.00,WUHU216HW,2013-01-06 17:41:00,
2013-01-06 12:46:00,43.4,38.5,30.09,North,0,0.0,0.0,83,0.00,,,0.00,WUHU216HW,2013-01-06 17:46:00,
2013-01-06 12:51:00,43.6,38.7,30.09,North,0,0.0,0.0,83,0.00,,,0.00,WUHU216HW,2013-01-06 17:51:00,
2013-01-06 12:56:00,43.6,38.7,30.09,North,0,0.0,0.0,83,0.00,,,0.00,WUHU216HW,2013-01-06 17:56:00,
2013-01-06 13:01:00,43.7,38.6,30.08,North,0,0.0,0.0,82,0.00,,,0.00,WUHU216HW,2013-01-06 18:01:00,
2013-01-06 13:04:00,43.9,38.8,30.08,North,0,0.0,0.0,82,0.00,,,0.00,WUHU216HW,2013-01-06 18:04:00,
2013-01-06 13:06:00,43.9,38.8,30.08,North,0,0.0,0.0,82,0.00,,,0.00,WUHU216HW,2013-01-06 18:06:00,
2013-01-06 13:11:00,43.9,38.8,30.08,North,0,0.0,0.0,82,0.00,,,0.00,WUHU216HW,2013-01-06 18:11:00,
2013-01-06 13:35:00,43.9,38.4,30.07,North,0,0.0,0.0,81,0.00,,,0.00,WUHU216HW,2013-01-06 18:35:00,
2013-01-06 13:40:00,43.9,38.8,30.07,North,0,0.0,0.0,82,0.00,,,0.00,WUHU216HW,2013-01-06 18:40:00,
2013-01-06 13:45:00,43.9,38.8,30.07,North,0,0.0,0.0,82,0.00,,,0.00,WUHU216HW,2013-01-06 18:45:00,
2013-01-06 13:50:00,44.1,39.0,30.07,North,0,0.0,0.0,82,0.00,,,0.00,WUHU216HW,2013-01-06 18:50:00,
2013-01-06 13:56:00,44.3,39.2,30.07,North,0,0.0,0.0,82,0.00,,,0.00,WUHU216HW,2013-01-06 18:56:00,
2013-01-06 14:01:00,44.6,39.2,30.07,North,0,0.0,0.0,81,0.00,,,0.00,WUHU216HW,2013-01-06 19:01:00,
2013-01-06 14:05:00,44.6,38.9,30.07,North,0,0.0,0.0,80,0.00,,,0.00,WUHU216HW,2013-01-06 19:05:00,
2013-01-06 14:11:00,45.0,39.2,30.07,North,0,0.0,0.0,80,0.00,,,0.00,WUHU216HW,2013-01-06 19:11:00,
2013-01-06 14:15:00,45.4,39.2,30.07,North,0,0.0,0.0,79,0.00,,,0.00,WUHU216HW,2013-01-06 19:15:00,
2013-01-06 14:21:00,45.5,39.1,30.06,North,0,0.0,0.0,78,0.00,,,0.00,WUHU216HW,2013-01-06 19:21:00,
2013-01-06 14:26:00,45.5,39.1,30.07,North,0,0.0,0.0,78,0.00,,,0.00,WUHU216HW,2013-01-06 19:26:00,
2013-01-06 14:30:00,45.5,38.8,30.06,North,0,0.0,0.0,77,0.00,,,0.00,WUHU216HW,2013-01-06 19:30:00,
2013-01-06 14:36:00,45.4,38.3,30.06,North,0,0.0,0.0,76,0.00,,,0.00,WUHU216HW,2013-01-06 19:36:00,
2013-01-06 14:40:00,46.4,39.0,30.06,North,0,0.0,0.0,75,0.00,,,0.00,WUHU216HW,2013-01-06 19:40:00,
2013-01-06 14:46:00,46.8,38.3,30.05,North,0,0.0,0.0,72,0.00,,,0.00,WUHU216HW,2013-01-06 19:46:00,
2013-01-06 14:51:00,47.0,39.2,30.05,North,0,0.0,0.0,74,0.00,,,0.00,WUHU216HW,2013-01-06 19:51:00,
2013-01-06 14:56:00,46.4,38.6,30.06,North,0,0.0,0.0,74,0.00,,,0.00,WUHU216HW,2013-01-06 19:56:00,
2013-01-06 15:01:00,46.3,38.4,30.05,North,0,0.0,0.0,74,0.00,,,0.00,WUHU216HW,2013-01-06 20:01:00,
2013-01-06 15:06:00,45.9,38.1,30.06,North,0,0.0,0.0,74,0.00,,,0.00,WUHU216HW,2013-01-06 20:06:00,
2013-01-06 15:11:00,45.4,37.5,30.06,North,0,0.0,0.0,74,0.00,,,0.00,WUHU216HW,2013-01-06 20:11:00,
2013-01-06 15:13:00,45.4,37.5,30.06,North,0,0.0,0.0,74,0.00,,,0.00,WUHU216HW,2013-01-06 20:13:00,
2013-01-06 15:18:00,45.0,37.5,30.06,North,0,0.0,0.0,75,0.00,,,0.00,WUHU216HW,2013-01-06 20:18:00,
2013-01-06 15:23:00,45.4,38.3,30.06,North,0,0.0,0.0,76,0.00,,,0.00,WUHU216HW,2013-01-06 20:23:00,
2013-01-06 15:28:00,45.4,37.9,30.06,North,0,0.0,0.0,75,0.00,,,0.00,WUHU216HW,2013-01-06 20:28:00,
2013-01-06 15:33:00,45.4,37.9,30.06,North,0,0.0,0.0,75,0.00,,,0.00,WUHU216HW,2013-01-06 20:33:00,
2013-01-06 15:38:00,45.4,37.5,30.06,North,0,0.0,0.0,74,0.00,,,0.00,WUHU216HW,2013-01-06 20:38:00,
2013-01-06 15:43:00,45.5,37.7,30.07,North,0,0.0,0.0,74,0.00,,,0.00,WUHU216HW,2013-01-06 20:43:00,
2013-01-06 15:48:00,45.5,38.1,30.07,North,0,0.0,0.0,75,0.00,,,0.00,WUHU216HW,2013-01-06 20:48:00,
2013-01-06 15:53:00,45.4,37.5,30.07,North,0,0.0,0.0,74,0.00,,,0.00,WUHU216HW,2013-01-06 20:53:00,
2013-01-06 15:58:00,45.2,37.4,30.07,North,0,0.0,0.0,74,0.00,,,0.00,WUHU216HW,2013-01-06 20:58:00,
2013-01-06 16:00:00,45.0,37.2,30.07,North,0,0.0,0.0,74,0.00,,,0.00,WUHU216HW,2013-01-06 21:00:00,
2013-01-06 16:05:00,45.0,37.5,30.07,North,0,0.0,0.0,75,0.00,,,0.00,WUHU216HW,2013-01-06 21:05:00,
2013-01-06 16:10:00,45.0,37.5,30.07,North,0,0.0,0.0,75,0.00,,,0.00,WUHU216HW,2013-01-06 21:10:00,
2013-01-06 16:15:00,45.0,37.5,30.07,North,0,0.0,0.0,75,0.00,,,0.00,WUHU216HW,2013-01-06 21:15:00,
2013-01-06 16:20:00,45.0,37.2,30.07,North,0,0.0,0.0,74,0.00,,,0.00,WUHU216HW,2013-01-06 21:20:00,
2013-01-06 16:25:00,45.0,37.5,30.08,North,0,0.0,0.0,75,0.00,,,0.00,WUHU216HW,2013-01-06 21:25:00,
2013-01-06 16:30:00,45.0,37.2,30.07,North,0,0.0,0.0,74,0.00,,,0.00,WUHU216HW,2013-01-06 21:30:00,
2013-01-06 16:35:00,45.0,37.2,30.07,North,0,0.0,0.0,74,0.00,,,0.00,WUHU216HW,2013-01-06 21:35:00,
2013-01-06 16:40:00,45.0,37.2,30.07,North,0,0.0,0.0,74,0.00,,,0.00,WUHU216HW,2013-01-06 21:40:00,
2013-01-06 16:45:00,45.0,37.2,30.07,North,0,0.0,0.0,74,0.00,,,0.00,WUHU216HW,2013-01-06 21:45:00,
2013-01-06 16:50:00,44.8,37.0,30.07,North,0,0.0,0.0,74,0.00,,,0.00,WUHU216HW,2013-01-06 21:50:00,
2013-01-06 16:55:00,44.6,36.8,30.07,North,0,0.0,0.0,74,0.00,,,0.00,WUHU216HW,2013-01-06 21:55:00,
2013-01-06 17:00:00,44.6,37.2,30.07,North,0,0.0,0.0,75,0.00,,,0.00,WUHU216HW,2013-01-06 22:00:00,
2013-01-06 17:05:00,44.6,37.2,30.07,North,0,0.0,0.0,75,0.00,,,0.00,WUHU216HW,2013-01-06 22:05:00,
2013-01-06 17:10:00,44.5,37.0,30.07,North,0,0.0,0.0,75,0.00,,,0.00,WUHU216HW,2013-01-06 22:10:00,
2013-01-06 17:15:00,44.3,36.8,30.07,North,0,0.0,0.0,75,0.00,,,0.00,WUHU216HW,2013-01-06 22:15:00,
2013-01-06 17:20:00,44.1,37.0,30.07,North,0,0.0,0.0,76,0.00,,,0.00,WUHU216HW,2013-01-06 22:20:00,
2013-01-06 17:25:00,44.1,37.0,30.07,North,0,0.0,0.0,76,0.00,,,0.00,WUHU216HW,2013-01-06 22:25:00,
2013-01-06 17:30:00,43.7,37.0,30.07,North,0,0.0,0.0,77,0.00,,,0.00,WUHU216HW,2013-01-06 22:30:00,
2013-01-06 17:35:00,43.6,36.8,30.07,North,0,0.0,0.0,77,0.00,,,0.00,WUHU216HW,2013-01-06 22:35:00,
2013-01-06 17:40:00,43.4,36.6,30.07,North,0,0.0,0.0,77,0.00,,,0.00,WUHU216HW,2013-01-06 22:40:00,
2013-01-06 17:45:00,43.4,36.6,30.07,North,0,0.0,0.0,77,0.00,,,0.00,WUHU216HW,2013-01-06 22:45:00,
2013-01-06 17:50:00,43.2,36.8,30.07,North,0,0.0,0.0,78,0.00,,,0.00,WUHU216HW,2013-01-06 22:50:00,
2013-01-06 17:55:00,42.8,36.5,30.07,North,0,0.0,0.0,78,0.00,,,0.00,WUHU216HW,2013-01-06 22:55:00,
2013-01-06 18:00:00,42.3,35.9,30.07,North,0,0.0,0.0,78,0.00,,,0.00,WUHU216HW,2013-01-06 23:00:00,
2013-01-06 18:05:00,42.1,36.0,30.07,North,0,0.0,0.0,79,0.00,,,0.00,WUHU216HW,2013-01-06 23:05:00,
2013-01-06 18:07:00,41.9,35.8,30.07,North,0,0.0,0.0,79,0.00,,,0.00,WUHU216HW,2013-01-06 23:07:00,
2013-01-06 18:10:00,41.9,35.8,30.07,North,0,0.0,0.0,79,0.00,,,0.00,WUHU216HW,2013-01-06 23:10:00,
2013-01-06 18:15:00,41.9,35.8,30.07,North,0,0.0,0.0,79,0.00,,,0.00,WUHU216HW,2013-01-06 23:15:00,
2013-01-06 18:37:00,40.3,34.9,30.08,North,0,0.0,0.0,81,0.00,,,0.00,WUHU216HW,2013-01-06 23:37:00,
2013-01-06 18:42:00,40.0,34.3,30.08,North,0,0.0,0.0,80,0.00,,,0.00,WUHU216HW,2013-01-06 23:42:00,
2013-01-06 18:44:00,40.0,34.3,30.08,North,0,0.0,0.0,80,0.00,,,0.00,WUHU216HW,2013-01-06 23:44:00,
2013-01-06 18:47:00,40.0,34.3,30.08,North,0,0.0,0.0,80,0.00,,,0.00,WUHU216HW,2013-01-06 23:47:00,
2013-01-06 18:55:00,39.6,34.3,30.08,North,0,0.0,0.0,81,0.00,,,0.00,WUHU216HW,2013-01-06 23:55:00,
2013-01-06 18:56:00,39.6,34.3,30.08,North,0,0.0,0.0,81,0.00,,,0.00,WUHU216HW,2013-01-06 23:56:00,
2013-01-06 18:57:00,39.6,34.6,30.08,North,0,0.0,0.0,82,0.00,,,0.00,WUHU216HW,2013-01-06 23:57:00,
2013-01-06 18:58:00,39.6,34.3,30.08,North,0,0.0,0.0,81,0.00,,,0.00,WUHU216HW,2013-01-06 23:58:00,
2013-01-06 19:00:00,39.6,34.6,30.08,North,0,0.0,0.0,82,0.00,,,0.00,WUHU216HW,2013-01-07 00:00:00,
2013-01-06 19:01:00,39.6,34.6,30.08,North,0,0.0,0.0,82,0.00,,,0.00,WUHU216HW,2013-01-07 00:01:00,
2013-01-06 19:03:00,39.6,34.6,30.09,North,0,0.0,0.0,82,0.00,,,0.00,WUHU216HW,2013-01-07 00:03:00,
2013-01-06 19:04:00,39.6,34.6,30.09,North,0,0.0,0.0,82,0.00,,,0.00,WUHU216HW,2013-01-07 00:04:00,
2013-01-06 19:05:00,39.6,34.3,30.09,North,0,0.0,0.0,81,0.00,,,0.00,WUHU216HW,2013-01-07 00:05:00,
2013-01-06 19:06:00,39.4,34.1,30.09,North,0,0.0,0.0,81,0.00,,,0.00,WUHU216HW,2013-01-07 00:06:00,
2013-01-06 19:07:00,39.4,34.4,30.09,North,0,0.0,0.0,82,0.00,,,0.00,WUHU216HW,2013-01-07 00:07:00,
2013-01-06 19:08:00,39.4,34.4,30.09,North,0,0.0,0.0,82,0.00,,,0.00,WUHU216HW,2013-01-07 00:08:00,
2013-01-06 19:09:00,39.4,34.4,30.09,North,0,0.0,0.0,82,0.00,,,0.00,WUHU216HW,2013-01-07 00:09:00,
2013-01-06 19:10:00,39.4,34.4,30.09,North,0,0.0,0.0,82,0.00,,,0.00,WUHU216HW,2013-01-07 00:10:00,
2013-01-06 19:11:00,39.4,34.4,30.09,North,0,0.0,0.0,82,0.00,,,0.00,WUHU216HW,2013-01-07 00:11:00,
2013-01-06 19:12:00,39.4,34.4,30.09,North,0,0.0,0.0,82,0.00,,,0.00,WUHU216HW,2013-01-07 00:12:00,
2013-01-06 19:13:00,39.4,34.4,30.09,North,0,0.0,0.0,82,0.00,,,0.00,WUHU216HW,2013-01-07 00:13:00,
2013-01-06 19:28:00,38.7,33.7,30.10,North,0,0.0,0.0,82,0.00,,,0.00,WUHU216HW,2013-01-07 00:28:00,
2013-01-06 19:33:00,38.5,33.5,30.10,North,0,0.0,0.0,82,0.00,,,0.00,WUHU216HW,2013-01-07 00:33:00,
2013-01-06 19:38:00,38.2,33.1,30.11,North,0,0.0,0.0,82,0.00,,,0.00,WUHU216HW,2013-01-07 00:38:00,
2013-01-06 19:43:00,37.8,33.1,30.10,North,0,0.0,0.0,83,0.00,,,0.00,WUHU216HW,2013-01-07 00:43:00,
2013-01-06 19:48:00,37.6,33.2,30.10,North,0,0.0,0.0,84,0.00,,,0.00,WUHU216HW,2013-01-07 00:48:00,
2013-01-06 19:53:00,37.6,33.2,30.10,North,0,0.0,0.0,84,0.00,,,0.00,WUHU216HW,2013-01-07 00:53:00,
2013-01-06 19:58:00,37.6,33.5,30.10,North,0,0.0,0.0,85,0.00,,,0.00,WUHU216HW,2013-01-07 00:58:00,
2013-01-06 20:03:00,37.8,33.7,30.11,North,0,0.0,0.0,85,0.00,,,0.00,WUHU216HW,2013-01-07 01:03:00,
2013-01-06 20:08:00,37.6,33.5,30.11,North,0,0.0,0.0,85,0.00,,,0.00,WUHU216HW,2013-01-07 01:08:00,
2013-01-06 20:13:00,37.4,33.3,30.11,North,0,0.0,0.0,85,0.00,,,0.00,WUHU216HW,2013-01-07 01:13:00,
2013-01-06 20:18:00,37.1,32.9,30.12,North,0,0.0,0.0,85,0.00,,,0.00,WUHU216HW,2013-01-07 01:18:00,
2013-01-06 20:23:00,37.1,32.9,30.12,North,0,0.0,0.0,85,0.00,,,0.00,WUHU216HW,2013-01-07 01:23:00,
2013-01-06 20:28:00,36.9,32.8,30.11,North,0,0.0,0.0,85,0.00,,,0.00,WUHU216HW,2013-01-07 01:28:00,
2013-01-06 20:33:00,36.9,33.0,30.12,North,0,0.0,0.0,86,0.00,,,0.00,WUHU216HW,2013-01-07 01:33:00,
2013-01-06 20:38:00,37.1,33.2,30.12,North,0,0.0,0.0,86,0.00,,,0.00,WUHU216HW,2013-01-07 01:38:00,
2013-01-06 20:43:00,36.9,33.0,30.12,North,0,0.0,0.0,86,0.00,,,0.00,WUHU216HW,2013-01-07 01:43:00,
2013-01-06 20:48:00,36.7,32.9,30.12,North,0,0.0,0.0,86,0.00,,,0.00,WUHU216HW,2013-01-07 01:48:00,
2013-01-06 20:53:00,36.5,32.7,30.12,North,0,0.0,0.0,86,0.00,,,0.00,WUHU216HW,2013-01-07 01:53:00,
2013-01-06 20:58:00,36.4,32.5,30.12,North,0,0.0,0.0,86,0.00,,,0.00,WUHU216HW,2013-01-07 01:58:00,
2013-01-06 21:03:00,36.4,32.8,30.12,North,0,0.0,0.0,87,0.00,,,0.00,WUHU216HW,2013-01-07 02:03:00,
2013-01-06 21:08:00,36.5,32.9,30.12,North,0,0.0,0.0,87,0.00,,,0.00,WUHU216HW,2013-01-07 02:08:00,
2013-01-06 21:13:00,36.9,33.3,30.12,North,0,0.0,0.0,87,0.00,,,0.00,WUHU216HW,2013-01-07 02:13:00,
2013-01-06 21:18:00,36.5,32.9,30.12,North,0,0.0,0.0,87,0.00,,,0.00,WUHU216HW,2013-01-07 02:18:00,
2013-01-06 21:23:00,36.4,32.8,30.13,North,0,0.0,0.0,87,0.00,,,0.00,WUHU216HW,2013-01-07 02:23:00,
2013-01-06 21:28:00,36.2,32.6,30.13,North,0,0.0,0.0,87,0.00,,,0.00,WUHU216HW,2013-01-07 02:28:00,
2013-01-06 21:33:00,36.0,32.4,30.13,North,0,0.0,0.0,87,0.00,,,0.00,WUHU216HW,2013-01-07 02:33:00,
2013-01-06 21:38:00,36.0,32.4,30.13,North,0,0.0,0.0,87,0.00,,,0.00,WUHU216HW,2013-01-07 02:38:00,
2013-01-06 21:43:00,36.0,32.4,30.13,North,0,0.0,0.0,87,0.00,,,0.00,WUHU216HW,2013-01-07 02:43:00,
2013-01-06 21:48:00,36.0,32.4,30.13,North,0,0.0,0.0,87,0.00,,,0.00,WUHU216HW,2013-01-07 02:48:00,
2013-01-06 21:53:00,36.0,32.4,30.13,North,0,0.0,0.0,87,0.00,,,0.00,WUHU216HW,2013-01-07 02:53:00,
2013-01-06 21:58:00,36.0,32.4,30.13,North,0,0.0,0.0,87,0.00,,,0.00,WUHU216HW,2013-01-07 02:58:00,
2013-01-06 22:03:00,36.0,32.4,30.14,North,0,0.0,0.0,87,0.00,,,0.00,WUHU216HW,2013-01-07 03:03:00,
2013-01-06 22:08:00,35.8,32.2,30.14,North,0,0.0,0.0,87,0.00,,,0.00,WUHU216HW,2013-01-07 03:08:00,
2013-01-06 22:13:00,36.0,32.4,30.14,North,0,0.0,0.0,87,0.00,,,0.00,WUHU216HW,2013-01-07 03:13:00,
2013-01-06 22:18:00,36.2,33.0,30.14,North,0,0.0,0.0,88,0.00,,,0.00,WUHU216HW,2013-01-07 03:18:00,
2013-01-06 22:23:00,36.4,32.8,30.14,North,0,0.0,0.0,87,0.00,,,0.00,WUHU216HW,2013-01-07 03:23:00,
2013-01-06 22:28:00,36.2,32.6,30.15,North,0,0.0,0.0,87,0.00,,,0.00,WUHU216HW,2013-01-07 03:28:00,
2013-01-06 22:33:00,35.8,32.2,30.15,North,0,0.0,0.0,87,0.00,,,0.00,WUHU216HW,2013-01-07 03:33:00,
2013-01-06 22:38:00,35.5,31.6,30.15,North,0,0.0,0.0,86,0.00,,,0.00,WUHU216HW,2013-01-07 03:38:00,
2013-01-06 22:43:00,35.3,31.4,30.15,North,0,0.0,0.0,86,0.00,,,0.00,WUHU216HW,2013-01-07 03:43:00,
2013-01-06 22:48:00,35.3,31.7,30.16,North,0,0.0,0.0,87,0.00,,,0.00,WUHU216HW,2013-01-07 03:48:00,
2013-01-06 22:53:00,35.6,32.0,30.16,North,0,0.0,0.0,87,0.00,,,0.00,WUHU216HW,2013-01-07 03:53:00,
2013-01-06 22:58:00,36.0,32.4,30.16,North,0,0.0,0.0,87,0.00,,,0.00,WUHU216HW,2013-01-07 03:58:00,
2013-01-06 23:03:00,36.0,32.4,30.16,North,0,0.0,0.0,87,0.00,,,0.00,WUHU216HW,2013-01-07 04:03:00,
2013-01-06 23:08:00,35.8,32.2,30.17,North,0,0.0,0.0,87,0.00,,,0.00,WUHU216HW,2013-01-07 04:08:00,
2013-01-06 23:13:00,35.6,31.8,30.15,North,0,0.0,0.0,86,0.00,,,0.00,WUHU216HW,2013-01-07 04:13:00,
2013-01-06 23:18:00,35.6,31.8,30.16,North,0,0.0,0.0,86,0.00,,,0.00,WUHU216HW,2013-01-07 04:18:00,
2013-01-06 23:23:00,35.6,32.0,30.16,North,0,0.0,0.0,87,0.00,,,0.00,WUHU216HW,2013-01-07 04:23:00,
2013-01-06 23:28:00,35.5,31.9,30.16,North,0,0.0,0.0,87,0.00,,,0.00,WUHU216HW,2013-01-07 04:28:00,
2013-01-06 23:33:00,35.1,31.2,30.16,North,0,0.0,0.0,86,0.00,,,0.00,WUHU216HW,2013-01-07 04:33:00,
2013-01-06 23:38:00,35.1,31.5,30.16,North,0,0.0,0.0,87,0.00,,,0.00,WUHU216HW,2013-01-07 04:38:00,
2013-01-06 23:43:00,35.3,32.1,30.16,North,0,0.0,0.0,88,0.00,,,0.00,WUHU216HW,2013-01-07 04:43:00,
2013-01-06 23:48:00,34.9,31.3,30.16,North,0,0.0,0.0,87,0.00,,,0.00,WUHU216HW,2013-01-07 04:48:00,
2013-01-06 23:53:00,34.9,31.7,30.16,North,0,0.0,0.0,88,0.00,,,0.00,WUHU216HW,2013-01-07 04:53:00,
2013-01-06 23:58:00,35.1,32.1,30.17,North,0,0.0,0.0,89,0.00,,,0.00,WUHU216HW,2013-01-07 04:58:00,